Preview of NWS' New Version of Forecast
This preview is not operational and should not be used for support decisions.

Regional Weather Roundup (RWR)

Issued by Huntsville, AL (HUN)

                            
000
ASUS44 KHUN 160810
RWRHUN
       
WEATHER ROUNDUP FOR THE TENNESSEE VALLEY
NATIONAL WEATHER SERVICE HUNTSVILLE AL
300 AM CDT TUE OCT 16 2018

ALZ001>004-160900-
NORTHWEST ALABAMA
  
CITY           SKY/WX    TMP DP  RH WIND       PRES   REMARKS
COURTLAND HCN    N/A     55 N/A N/A N5          N/A                   
RUSSELLVILLE     N/A     55 N/A N/A MISG        N/A                   
SHOALS AIRPORT MOCLDY    56  51  84 NE9       30.23S                  
SHOALS TVA RES   N/A     55 N/A N/A MISG        N/A                   
$$

ALZ005>007-016-160900-
NORTH CENTRAL ALABAMA
  
CITY           SKY/WX    TMP DP  RH WIND       PRES   REMARKS
CULLMAN AG STN   N/A     55 N/A N/A N7          N/A                   
DECATUR AP     LGT RAIN  56  51  84 N12       30.21S                  
HUNTSVILLE AP  CLOUDY    57  53  86 N6        30.21R                  
MERIDIANVILLE  CLOUDY    55  51  86 N12       30.21S                  
REDSTONE ARSN  CLOUDY    56  51  85 N8        30.19S                  
VINEMONT AP    CLOUDY    55  52  90 N7        30.20F                  
$$
 
ALZ008>010-160900-
NORTHEAST ALABAMA
  
CITY           SKY/WX    TMP DP  RH WIND       PRES   REMARKS
ALBERTVILLE    CLOUDY    57  57 100 N9        30.17R FOG              
FORT PAYNE     CLOUDY    61  59  94 N3        30.16S                  
SCOTTSBORO AP  FAIR      59  59 100 VRB6      30.19S                  
SCOTTSBORO HCN   N/A     59 N/A N/A MISG        N/A                   
VALLEY HEAD      N/A     61 N/A N/A MISG        N/A                   
$$

TNZ076-096-097-160900-
SOUTHEASTERN MIDDLE TENNESSEE
  
CITY           SKY/WX    TMP DP  RH WIND       PRES   REMARKS
TULLAHOMA      CLOUDY    52  50  93 N5        30.22S                  
WINCHESTER     CLOUDY    54  52  94 N8        30.21S                  
$$
 
...SURROUNDING SITES...
  
CITY           SKY/WX    TMP DP  RH WIND       PRES   REMARKS
ATLANTA        MOCLDY    71  68  90 CALM      30.12F                  
ANNISTON       MOCLDY    68  66  93 SE3       30.12S                  
BIRMINGHAM     CLOUDY    65  63  93 N9        30.16S                  
CHATTANOOGA    CLOUDY    61  55  81 N8        30.19R                  
CORINTH        CLOUDY    52  48  87 N9        30.23F                  
DALTON         CLOUDY    61  61 100 N9G16     30.18R                  
GADSDEN        CLOUDY    64  64 100 NW7       30.15R                  
GOLDEN TRNGL   CLOUDY    58  55  90 N12       30.18F                  
HALEYVILLE     CLOUDY    55  52  89 N6        30.21F                  
JACKSON TN     CLOUDY    46  44  93 NE8       30.27F                  
MEMPHIS        CLOUDY    46  44  93 N9        30.26S                  
NASHVILLE      CLOUDY    48  44  86 NW8       30.27S                  
OXFORD MS      CLOUDY    48  46  93 NE5       30.24S                  
ROME           CLOUDY    68  66  93 N6        30.13R                  
SAVANNAH       CLOUDY    66  61  82 N7        30.23F                  
SELMER         CLOUDY    48  46  93 N7        30.24F                  
TUPELO         CLOUDY    54  50  86 N10       30.20F                  
TUSCALOOSA     CLOUDY    69  62  78 N8        30.13F                  
$$

...GULF COAST WEATHER...
  
CITY           SKY/WX    TMP DP  RH WIND       PRES   REMARKS
GULFPORT       MOCLDY    79  75  87 N3        30.05S                  
PASCAGOULA     FOG       73  70  90 CALM      30.06S VSB 1/2          
MOBILE         CLOUDY    77  76  96 N3        30.08S                  
GULF SHORES    FOG       73  73 100 CALM      30.06F VSB 1/2          
DESTIN         FAIR      77  76  96 CALM      30.07F                  
PANAMA CITY    FOG       76  76 100 E2        30.08F VSB<1/4          
$$